Location: Brookfield Center
(41.2406°N, 80.5579°W)
Time: 21:20:46
(UTC+00:00)

Atlas Centaur 2 - Pass Details

Date: 18 January 2020
Orbit: 459 x 1310 km, 30.4° (Epoch: 27 February)

Event Time Altitude Azimuth Distance (km) Brightness Sun altitude
Rises 00:34:07 0° 205° (SSW) 3,267 5.7 -24.8°
Reaches altitude 10° 00:37:39 10° 181° (S) 2,528 4.7 -25.5°
Enters shadow 00:39:54 14° 159° (SSE) 2,361 4.3 -25.9°
